Location: Asheville, NC
(35.6000°N, 82.5500°W)
Time: 00:44:54
(UTC-04:00)

YUBILEINY - Pass Details

Date: 16 March 2018
Orbit: 1479 x 1508 km, 82.5° (Epoch: 18 June)

Event Time Altitude Azimuth Distance (km) Brightness Sun altitude
Rises 04:17:17 0° 7° (N) 4,616 ? -40.1°
Reaches altitude 10° 04:21:23 10° 24° (NNE) 3,637 ? -39.4°
Maximum altitude 04:27:15 19° 67° (ENE) 2,968 ? -38.4°
Drops below altitude 10° 04:33:06 10° 110° (ESE) 3,642 ? -37.3°
Sets 04:37:08 0° 127° (SE) 4,624 ? -36.6°
